| time (UTC) | temp F | wind direction | speed knots | gust knots | rain 1hr in | rain 24hr in | rain mn in | humidity % | barometer mb |
| 20260506073503 | 37 | 253 | 0.9 | 1.7 | 0.00 | 0.00 | 0.00 | 75 | 1017.3 |
| 20260506073004 | 39 | 229 | 0.0 | 1.7 | 0.00 | 0.00 | 0.00 | 72 | 1017.2 |
| 20260506071502 | 40 | 93 | 0.0 | 0.9 | 0.00 | 0.00 | 0.00 | 72 | 1017.3 |
| 20260506071001 | 40 | 93 | 0.0 | 1.7 | 0.00 | 0.00 | 0.00 | 71 | 1017.3 |
| 20260506062431 | 42 | 165 | 0.0 | 0.0 | 0.00 | 0.00 | 0.00 | 62 | 1017.1 |
| 20260506061930 | 42 | 165 | 0.0 | 0.0 | 0.00 | 0.00 | 0.00 | 62 | 1016.9 |
| 20260506061431 | 42 | 165 | 0.0 | 0.0 | 0.00 | 0.00 | 0.00 | 65 | 1017.1 |
| 20260506060929 | 43 | 165 | 0.0 | 0.9 | 0.00 | 0.00 | 0.00 | 68 | 1017.1 |
| 20260506060430 | 43 | 165 | 0.0 | 0.9 | 0.00 | 0.00 | 0.00 | 61 | 1017.1 |
| 20260506050916 | 46 | 327 | 0.0 | 0.9 | 0.00 | 0.00 | 0.00 | 50 | 1016.9 |
| 20260506050409 | 47 | 327 | 0.0 | 0.9 | 0.00 | 0.00 | 0.00 | 50 | 1016.9 |
| 20260506044405 | 49 | 219 | 0.9 | 3.5 | 0.00 | 0.00 | 0.00 | 44 | 1016.7 |
| 20260506043901 | 49 | 218 | 0.9 | 2.6 | 0.00 | 0.00 | 0.00 | 44 | 1016.8 |
| 20260506042902 | 51 | 52 | 2.6 | 8.7 | 0.00 | 0.00 | 0.00 | 43 | 1016.6 |
| 20260506042401 | 51 | 69 | 4.3 | 10.4 | 0.00 | 0.00 | 0.00 | 44 | 1016.6 |
| 20260506041901 | 51 | 53 | 5.2 | 12.2 | 0.00 | 0.00 | 0.00 | 43 | 1016.6 |
| 20260506041402 | 52 | 70 | 5.2 | 12.2 | 0.00 | 0.00 | 0.00 | 42 | 1016.5 |
| 20260506040401 | 52 | 55 | 6.1 | 11.3 | 0.00 | 0.00 | 0.00 | 44 | 1016.4 |
| 20260506035901 | 51 | 53 | 5.2 | 7.8 | 0.00 | 0.00 | 0.00 | 41 | 1016.5 |
| 20260506035401 | 51 | 93 | 2.6 | 7.8 | 0.00 | 0.00 | 0.00 | 44 | 1016.5 |
| 20260506034905 | 51 | 74 | 0.9 | 7.0 | 0.00 | 0.00 | 0.00 | 47 | 1016.5 |
| 20260506034402 | 51 | 18 | 1.7 | 7.0 | 0.00 | 0.00 | 0.00 | 43 | 1016.4 |
| 20260506033901 | 52 | 59 | 4.3 | 11.3 | 0.00 | 0.00 | 0.00 | 43 | 1016.4 |
| 20260506033402 | 52 | 75 | 4.3 | 11.3 | 0.00 | 0.00 | 0.00 | 41 | 1016.4 |
| 20260506031847 | 52 | 300 | 8.7 | 14.8 | 0.00 | 0.00 | 0.00 | 40 | 1016.2 |
| 20260506031340 | 53 | 88 | 10.4 | 14.8 | 0.00 | 0.00 | 0.00 | 40 | 1016.2 |
| 20260506030834 | 53 | 69 | 8.7 | 14.8 | 0.00 | 0.00 | 0.00 | 42 | 1016.2 |
| 20260506030334 | 53 | 73 | 8.7 | 15.6 | 0.00 | 0.00 | 0.00 | 42 | 1016.2 |
| 20260506025834 | 53 | 62 | 9.6 | 15.6 | 0.00 | 0.00 | 0.00 | 38 | 1016.1 |
| 20260506025334 | 53 | 81 | 10.4 | 17.4 | 0.00 | 0.00 | 0.00 | 40 | 1016.0 |
| 20260506024834 | 53 | 83 | 10.4 | 17.4 | 0.00 | 0.00 | 0.00 | 38 | 1016.0 |
| 20260506024334 | 53 | 74 | 9.6 | 13.0 | 0.00 | 0.00 | 0.00 | 38 | 1016.0 |
| 20260506023834 | 53 | 69 | 7.8 | 12.2 | 0.00 | 0.00 | 0.00 | 37 | 1016.0 |
| 20260506023334 | 53 | 57 | 7.8 | 12.2 | 0.00 | 0.00 | 0.00 | 41 | 1016.0 |
| 20260506022835 | 53 | 97 | 8.7 | 15.6 | 0.00 | 0.00 | 0.00 | 37 | 1016.0 |
| 20260506022333 | 53 | 92 | 8.7 | 15.6 | 0.00 | 0.00 | 0.00 | 37 | 1016.0 |
| 20260506021835 | 53 | 73 | 8.7 | 15.6 | 0.00 | 0.00 | 0.00 | 38 | 1015.7 |
| 20260506021334 | 53 | 28 | 8.7 | 17.4 | 0.00 | 0.00 | 0.00 | 38 | 1015.9 |
| 20260506020834 | 53 | 96 | 9.6 | 17.4 | 0.00 | 0.00 | 0.00 | 38 | 1015.9 |
| 20260506020334 | 53 | 14 | 9.6 | 14.8 | 0.00 | 0.00 | 0.00 | 37 | 1015.7 |
| 20260506015834 | 54 | 69 | 10.4 | 17.4 | 0.00 | 0.00 | 0.00 | 38 | 1015.7 |
| 20260506015337 | 54 | 91 | 9.6 | 17.4 | 0.00 | 0.00 | 0.00 | 38 | 1015.6 |
| 20260506014836 | 54 | 74 | 7.8 | 14.8 | 0.00 | 0.00 | 0.00 | 38 | 1015.6 |
| 20260506014336 | 54 | 59 | 8.7 | 13.9 | 0.00 | 0.00 | 0.00 | 39 | 1015.6 |
| 20260506013835 | 54 | 76 | 8.7 | 13.9 | 0.00 | 0.00 | 0.00 | 38 | 1015.5 |
| 20260506013335 | 54 | 84 | 9.6 | 16.5 | 0.00 | 0.00 | 0.00 | 38 | 1015.5 |
| 20260506012834 | 54 | 336 | 10.4 | 17.4 | 0.00 | 0.00 | 0.00 | 37 | 1015.6 |
| 20260506011833 | 54 | 101 | 10.4 | 17.4 | 0.00 | 0.00 | 0.00 | 37 | 1015.6 |
| 20260506011334 | 54 | 86 | 11.3 | 18.2 | 0.00 | 0.00 | 0.00 | 38 | 1015.6 |
| 20260506010834 | 54 | 88 | 12.2 | 18.2 | 0.00 | 0.00 | 0.00 | 38 | 1015.6 |
| 20260506010334 | 54 | 67 | 13.0 | 20.0 | 0.00 | 0.00 | 0.00 | 36 | 1015.6 |
| 20260506005834 | 54 | 17 | 13.9 | 20.9 | 0.00 | 0.00 | 0.00 | 36 | 1015.6 |
| 20260506005335 | 54 | 276 | 14.8 | 22.6 | 0.00 | 0.00 | 0.00 | 37 | 1015.9 |
| 20260506004834 | 54 | 336 | 14.8 | 22.6 | 0.00 | 0.00 | 0.00 | 36 | 1015.7 |
| 20260506004335 | 54 | 79 | 13.9 | 20.0 | 0.00 | 0.00 | 0.00 | 35 | 1015.6 |
| 20260506003833 | 54 | 80 | 13.0 | 20.9 | 0.00 | 0.00 | 0.00 | 36 | 1015.7 |
| 20260506002335 | 54 | 86 | 12.2 | 20.9 | 0.00 | 0.00 | 0.00 | 35 | 1015.9 |
| 20260506001833 | 54 | 33 | 13.0 | 20.0 | 0.00 | 0.00 | 0.00 | 39 | 1015.7 |
| 20260506001334 | 54 | 91 | 13.9 | 20.9 | 0.00 | 0.00 | 0.00 | 34 | 1015.9 |
| 20260506000833 | 54 | 79 | 13.9 | 20.9 | 0.00 | 0.00 | 0.00 | 35 | 1015.4 |
| 20260506000335 | 54 | 94 | 13.0 | 19.1 | 0.00 | 0.00 | 0.00 | 38 | 1015.7 |
| 20260505235336 | 55 | 71 | 12.2 | 20.0 | 0.00 | 0.00 | 0.00 | 36 | 1015.7 |
| 20260505234838 | 54 | 74 | 13.0 | 20.9 | 0.00 | 0.00 | 0.00 | 36 | 1015.6 |
| 20260505234332 | 54 | 66 | 14.8 | 20.9 | 0.00 | 0.00 | 0.00 | 38 | 1015.5 |
| 20260505233831 | 54 | 81 | 16.5 | 28.7 | 0.00 | 0.00 | 0.00 | 36 | 1016.0 |
| 20260505233332 | 54 | 49 | 16.5 | 28.7 | 0.00 | 0.00 | 0.00 | 36 | 1015.9 |
| 20260505232830 | 55 | 28 | 13.9 | 24.3 | 0.00 | 0.00 | 0.00 | 35 | 1016.0 |
| 20260505232330 | 55 | 77 | 13.9 | 24.3 | 0.00 | 0.00 | 0.00 | 37 | 1015.7 |
| 20260505231331 | 54 | 74 | 19.1 | 26.1 | 0.00 | 0.00 | 0.00 | 36 | 1015.6 |
| 20260505230831 | 54 | 68 | 20.0 | 25.2 | 0.00 | 0.00 | 0.00 | 35 | 1016.1 |
| 20260505230331 | 54 | 69 | 18.2 | 25.2 | 0.00 | 0.00 | 0.00 | 36 | 1015.9 |
| 20260505225832 | 54 | 96 | 14.8 | 25.2 | 0.00 | 0.00 | 0.00 | 36 | 1016.6 |
| 20260505225331 | 55 | 65 | 12.2 | 20.9 | 0.00 | 0.00 | 0.00 | 35 | 1015.9 |
| 20260505224832 | 55 | 78 | 11.3 | 20.9 | 0.00 | 0.00 | 0.00 | 35 | 1015.9 |
| 20260505224331 | 55 | 90 | 11.3 | 20.0 | 0.00 | 0.00 | 0.00 | 36 | 1015.9 |
| 20260505223330 | 55 | 47 | 14.8 | 24.3 | 0.00 | 0.00 | 0.00 | 34 | 1015.9 |
| 20260505222330 | 56 | 126 | 7.8 | 20.0 | 0.00 | 0.00 | 0.00 | 32 | 1016.3 |
| 20260505221330 | 59 | 168 | 3.5 | 10.4 | 0.00 | 0.00 | 0.00 | 31 | 1015.6 |
| 20260505220329 | 59 | 309 | 2.6 | 9.6 | 0.00 | 0.00 | 0.00 | 30 | 1015.9 |
| 20260505215830 | 60 | 11 | 2.6 | 10.4 | 0.00 | 0.00 | 0.00 | 31 | 1015.7 |
| 20260505215330 | 59 | 117 | 4.3 | 11.3 | 0.00 | 0.00 | 0.00 | 31 | 1016.1 |
| 20260505214830 | 59 | 84 | 4.3 | 12.2 | 0.00 | 0.00 | 0.00 | 30 | 1015.9 |
| 20260505214331 | 59 | 34 | 7.0 | 15.6 | 0.00 | 0.00 | 0.00 | 30 | 1016.0 |
| 20260505213830 | 58 | 304 | 7.0 | 15.6 | 0.00 | 0.00 | 0.00 | 32 | 1016.2 |
| 20260505213330 | 59 | 76 | 5.2 | 11.3 | 0.00 | 0.00 | 0.00 | 30 | 1016.0 |
| 20260505212831 | 59 | 84 | 3.5 | 11.3 | 0.00 | 0.00 | 0.00 | 27 | 1015.9 |
| 20260505212330 | 59 | 59 | 3.5 | 8.7 | 0.00 | 0.00 | 0.00 | 30 | 1016.0 |
| 20260505211830 | 59 | 347 | 7.0 | 12.2 | 0.00 | 0.00 | 0.00 | 29 | 1016.0 |
| 20260505211329 | 58 | 138 | 8.7 | 15.6 | 0.00 | 0.00 | 0.00 | 34 | 1016.1 |
| 20260505210830 | 58 | 59 | 8.7 | 15.6 | 0.00 | 0.00 | 0.00 | 32 | 1016.1 |
| 20260505210331 | 58 | 66 | 8.7 | 14.8 | 0.00 | 0.00 | 0.00 | 35 | 1016.3 |
| 20260505205329 | 57 | 76 | 5.2 | 14.8 | 0.00 | 0.00 | 0.00 | 31 | 1016.4 |
| 20260505204829 | 57 | 55 | 4.3 | 11.3 | 0.00 | 0.00 | 0.00 | 36 | 1016.2 |
| 20260505204329 | 58 | 35 | 3.5 | 11.3 | 0.00 | 0.00 | 0.00 | 31 | 1016.3 |
| 20260505203829 | 60 | 19 | 2.6 | 8.7 | 0.00 | 0.00 | 0.00 | 28 | 1016.2 |
| 20260505203329 | 59 | 58 | 4.3 | 10.4 | 0.00 | 0.00 | 0.00 | 35 | 1016.2 |
| 20260505202829 | 58 | 257 | 4.3 | 10.4 | 0.00 | 0.00 | 0.00 | 31 | 1016.2 |
| 20260505201830 | 58 | 68 | 4.3 | 10.4 | 0.00 | 0.00 | 0.00 | 30 | 1016.3 |
| 20260505201330 | 59 | 132 | 3.5 | 8.7 | 0.00 | 0.00 | 0.00 | 30 | 1016.2 |
| 20260505200829 | 58 | 48 | 3.5 | 7.8 | 0.00 | 0.00 | 0.00 | 37 | 1016.2 |
| 20260505200329 | 58 | 74 | 3.5 | 7.8 | 0.00 | 0.00 | 0.00 | 34 | 1016.3 |
| 20260505195830 | 59 | 82 | 4.3 | 10.4 | 0.00 | 0.00 | 0.00 | 31 | 1016.3 |
| 20260505195335 | 58 | 340 | 5.2 | 11.3 | 0.00 | 0.00 | 0.00 | 33 | 1016.4 |
| 20260505194832 | 59 | 68 | 3.5 | 11.3 | 0.00 | 0.00 | 0.00 | 32 | 1016.3 |
| 20260505194333 | 60 | 45 | 2.6 | 7.0 | 0.00 | 0.00 | 0.00 | 36 | 1016.2 |
| 20260505193832 | 60 | 321 | 2.6 | 7.8 | 0.00 | 0.00 | 0.00 | 30 | 1016.2 |
| 20260505193323 | 60 | 47 | 1.7 | 9.6 | 0.00 | 0.00 | 0.00 | 34 | 1016.3 |
| 20260505192817 | 59 | 17 | 2.6 | 9.6 | 0.00 | 0.00 | 0.00 | 34 | 1016.3 |
| 20260505192316 | 58 | 123 | 1.7 | 7.0 | 0.00 | 0.00 | 0.00 | 35 | 1016.4 |
| 20260505191816 | 58 | 71 | 1.7 | 7.0 | 0.00 | 0.00 | 0.00 | 35 | 1016.4 |
| 20260505191314 | 59 | 103 | 1.7 | 7.0 | 0.00 | 0.00 | 0.00 | 35 | 1016.3 |
| 20260505190815 | 60 | 71 | 1.7 | 7.0 | 0.00 | 0.00 | 0.00 | 37 | 1016.3 |
| 20260505185813 | 58 | 336 | 2.6 | 6.1 | 0.00 | 0.00 | 0.00 | 37 | 1016.3 |
| 20260505185311 | 57 | 68 | 3.5 | 7.0 | 0.00 | 0.00 | 0.00 | 41 | 1016.5 |
| 20260505184811 | 57 | 40 | 4.3 | 8.7 | 0.00 | 0.00 | 0.00 | 39 | 1016.4 |
| 20260505184311 | 57 | 52 | 5.2 | 10.4 | 0.00 | 0.00 | 0.00 | 38 | 1016.5 |
| 20260505183310 | 56 | 67 | 2.6 | 7.8 | 0.00 | 0.00 | 0.00 | 41 | 1016.4 |
| 20260505182808 | 56 | 149 | 2.6 | 7.0 | 0.00 | 0.00 | 0.00 | 39 | 1016.4 |
| 20260505181308 | 57 | 90 | 1.7 | 14.8 | 0.00 | 0.00 | 0.00 | 39 | 1016.4 |
| 20260505180805 | 57 | 96 | 0.9 | 3.5 | 0.00 | 0.00 | 0.00 | 37 | 1016.3 |
| 20260505180302 | 56 | 107 | 2.6 | 5.2 | 0.00 | 0.00 | 0.00 | 38 | 1016.3 |
| 20260505175801 | 56 | 71 | 2.6 | 5.2 | 0.00 | 0.00 | 0.00 | 36 | 1016.4 |
| 20260505174801 | 57 | 68 | 0.9 | 3.5 | 0.00 | 0.00 | 0.00 | 36 | 1016.4 |
| 20260505174302 | 55 | 59 | 1.7 | 3.5 | 0.00 | 0.00 | 0.00 | 39 | 1016.4 |
| 20260505173802 | 56 | 329 | 1.7 | 3.5 | 0.00 | 0.00 | 0.00 | 36 | 1016.5 |
| 20260505173302 | 57 | 61 | 0.9 | 3.5 | 0.00 | 0.00 | 0.00 | 41 | 1016.4 |
| 20260505172801 | 58 | 85 | 0.9 | 5.2 | 0.00 | 0.00 | 0.00 | 37 | 1016.3 |
| 20260505172305 | 56 | 211 | 0.9 | 5.2 | 0.00 | 0.00 | 0.00 | 36 | 1016.4 |
| 20260505171801 | 55 | 187 | 0.0 | 2.6 | 0.00 | 0.00 | 0.00 | 41 | 1016.5 |
| 20260505171303 | 55 | 200 | 0.9 | 5.2 | 0.00 | 0.00 | 0.00 | 40 | 1016.5 |
| 20260505170800 | 55 | 291 | 0.9 | 5.2 | 0.00 | 0.00 | 0.00 | 40 | 1016.4 |
| 20260505170301 | 56 | 350 | 0.9 | 3.5 | 0.00 | 0.00 | 0.00 | 40 | 1016.5 |
| 20260505165802 | 56 | 26 | 1.7 | 4.3 | 0.00 | 0.00 | 0.00 | 39 | 1016.4 |
| 20260505164802 | 56 | 42 | 1.7 | 5.2 | 0.00 | 0.00 | 0.00 | 41 | 1016.5 |
| 20260505164301 | 57 | 37 | 0.9 | 4.3 | 0.00 | 0.00 | 0.00 | 38 | 1016.4 |
| 20260505163803 | 57 | 338 | 0.9 | 3.5 | 0.00 | 0.00 | 0.00 | 36 | 1016.5 |
| 20260505163302 | 57 | 331 | 0.0 | 1.7 | 0.00 | 0.00 | 0.00 | 39 | 1016.3 |
| 20260505162301 | 56 | 29 | 0.9 | 3.5 | 0.00 | 0.00 | 0.00 | 37 | 1016.4 |
| 20260505161801 | 56 | 109 | 0.9 | 2.6 | 0.00 | 0.00 | 0.00 | 36 | 1016.3 |
| 20260505161302 | 56 | 54 | 0.9 | 2.6 | 0.00 | 0.00 | 0.00 | 39 | 1016.3 |
| 20260505160301 | 56 | 71 | 0.9 | 3.5 | 0.00 | 0.00 | 0.00 | 38 | 1016.3 |
| 20260505153301 | 53 | 277 | 0.0 | 0.0 | 0.00 | 0.00 | 0.00 | 47 | 1016.4 |
| 20260505152802 | 52 | 278 | 0.0 | 0.9 | 0.00 | 0.00 | 0.00 | 47 | 1016.4 |
| 20260505152304 | 52 | 258 | 0.0 | 1.7 | 0.00 | 0.00 | 0.00 | 48 | 1016.4 |
| 20260505151302 | 51 | 312 | 0.0 | 0.9 | 0.00 | 0.00 | 0.00 | 53 | 1016.5 |
| 20260505150801 | 50 | 304 | 0.0 | 2.6 | 0.00 | 0.00 | 0.00 | 52 | 1016.5 |
| 20260505150302 | 49 | 309 | 0.0 | 2.6 | 0.00 | 0.00 | 0.00 | 50 | 1016.4 |
| 20260505140304 | 44 | 222 | 0.0 | 0.9 | 0.00 | 0.00 | 0.00 | 63 | 1016.0 |
| 20260505130303 | 44 | 40 | 0.0 | 0.9 | 0.00 | 0.00 | 0.00 | 68 | 1015.3 |
| 20260505124801 | 43 | 265 | 0.9 | 4.3 | 0.00 | 0.00 | 0.00 | 61 | 1015.2 |
| 20260505124301 | 43 | 98 | 0.9 | 2.6 | 0.00 | 0.00 | 0.00 | 66 | 1015.2 |
| 20260505123301 | 44 | 314 | 1.7 | 5.2 | 0.00 | 0.00 | 0.00 | 58 | 1015.0 |
| 20260505122803 | 44 | 217 | 0.9 | 1.7 | 0.00 | 0.00 | 0.00 | 64 | 1014.9 |
| 20260505122305 | 44 | 244 | 0.9 | 2.6 | 0.00 | 0.00 | 0.00 | 63 | 1014.9 |
| 20260505121802 | 44 | 237 | 0.9 | 2.6 | 0.00 | 0.00 | 0.00 | 66 | 1014.8 |
| 20260505120753 | 43 | 300 | 0.9 | 3.5 | 0.00 | 0.00 | 0.00 | 56 | 1014.6 |
| 20260505120255 | 43 | 280 | 0.9 | 3.5 | 0.00 | 0.00 | 0.00 | 70 | 1014.6 |
| 20260505115251 | 43 | 256 | 0.9 | 2.6 | 0.00 | 0.00 | 0.00 | 67 | 1014.6 |
| 20260505114252 | 42 | 273 | 0.9 | 2.6 | 0.00 | 0.00 | 0.00 | 71 | 1014.6 |
| 20260505113752 | 42 | 242 | 0.9 | 2.6 | 0.00 | 0.00 | 0.00 | 69 | 1014.6 |
| 20260505113251 | 42 | 238 | 0.0 | 1.7 | 0.00 | 0.00 | 0.00 | 67 | 1014.6 |
| 20260505112749 | 42 | 246 | 0.9 | 1.7 | 0.00 | 0.00 | 0.00 | 74 | 1014.8 |
| 20260505111749 | 42 | 240 | 0.9 | 1.7 | 0.00 | 0.00 | 0.00 | 72 | 1014.5 |
| 20260505110745 | 42 | 271 | 0.0 | 1.7 | 0.00 | 0.00 | 0.00 | 71 | 1014.6 |
| 20260505110246 | 42 | 243 | 0.0 | 1.7 | 0.00 | 0.00 | 0.00 | 69 | 1014.6 |
| 20260505101736 | 44 | 295 | 0.0 | 0.9 | 0.00 | 0.00 | 0.00 | 69 | 1014.6 |
| 20260505101236 | 44 | 296 | 0.0 | 0.0 | 0.00 | 0.00 | 0.00 | 63 | 1014.6 |
| 20260505100736 | 44 | 296 | 0.0 | 0.0 | 0.00 | 0.00 | 0.00 | 65 | 1014.8 |
| 20260505100235 | 44 | 296 | 0.0 | 0.9 | 0.00 | 0.00 | 0.00 | 67 | 1014.8 |
| 20260505095737 | 45 | 296 | 0.0 | 0.9 | 0.00 | 0.00 | 0.00 | 66 | 1014.6 |
| 20260505095235 | 45 | 0 | 0.0 | 0.9 | 0.00 | 0.00 | 0.00 | 66 | 1014.6 |
| 20260505094736 | 45 | 285 | 0.0 | 0.9 | 0.00 | 0.00 | 0.00 | 66 | 1014.6 |
| 20260505094235 | 45 | 284 | 0.0 | 0.9 | 0.00 | 0.00 | 0.00 | 62 | 1014.6 |
| 20260505093736 | 45 | 284 | 0.0 | 0.9 | 0.00 | 0.00 | 0.00 | 70 | 1014.6 |
| 20260505093233 | 46 | 283 | 0.9 | 1.7 | 0.00 | 0.00 | 0.00 | 69 | 1014.6 |
| 20260505092734 | 46 | 57 | 0.9 | 2.6 | 0.00 | 0.00 | 0.00 | 66 | 1014.6 |
| 20260505092233 | 46 | 225 | 0.9 | 2.6 | 0.00 | 0.00 | 0.00 | 58 | 1014.8 |
| 20260505091734 | 46 | 292 | 0.0 | 0.9 | 0.00 | 0.00 | 0.00 | 62 | 1014.6 |
| 20260505091229 | 47 | 271 | 0.9 | 1.7 | 0.00 | 0.00 | 0.00 | 59 | 1014.6 |
| 20260505090730 | 47 | 248 | 0.9 | 1.7 | 0.00 | 0.00 | 0.00 | 55 | 1014.6 |
| 20260505090224 | 49 | 284 | 0.9 | 2.6 | 0.00 | 0.00 | 0.00 | 55 | 1014.6 |
| 20260505085718 | 50 | 304 | 0.0 | 2.6 | 0.00 | 0.00 | 0.00 | 45 | 1014.6 |
| 20260505085210 | 49 | 296 | 0.0 | 2.6 | 0.00 | 0.00 | 0.00 | 42 | 1014.9 |
| 20260505084707 | 49 | 248 | 0.9 | 1.7 | 0.00 | 0.00 | 0.00 | 45 | 1014.8 |
| 20260505084207 | 49 | 231 | 0.9 | 2.6 | 0.00 | 0.00 | 0.00 | 50 | 1014.8 |
| 20260505083706 | 49 | 144 | 0.9 | 2.6 | 0.00 | 0.00 | 0.00 | 44 | 1014.8 |
| 20260505083202 | 50 | 213 | 0.9 | 10.4 | 0.00 | 0.00 | 0.00 | 46 | 1014.9 |
| 20260505082704 | 51 | 253 | 2.6 | 10.4 | 0.00 | 0.00 | 0.00 | 49 | 1014.8 |
| 20260505082202 | 51 | 50 | 5.2 | 11.3 | 0.00 | 0.00 | 0.00 | 42 | 1014.8 |
| 20260505081706 | 50 | 67 | 3.5 | 11.3 | 0.00 | 0.00 | 0.00 | 45 | 1014.8 |
| 20260505080707 | 46 | 284 | 0.9 | 2.6 | 0.00 | 0.00 | 0.00 | 64 | 1014.8 |
| 20260505080204 | 46 | 241 | 0.0 | 2.6 | 0.00 | 0.00 | 0.00 | 62 | 1014.8 |
| 20260505075706 | 46 | 275 | 0.0 | 1.7 | 0.00 | 0.00 | 0.00 | 60 | 1015.0 |
| 20260505075203 | 46 | 261 | 0.0 | 1.7 | 0.00 | 0.00 | 0.00 | 62 | 1014.8 |
| 20260505074704 | 46 | 276 | 0.0 | 1.7 | 0.00 | 0.00 | 0.00 | 63 | 1015.0 |